カタログに戻る

EUTE 5 WEST A

STELLAT5

運用中通信GEO
NORAD 27460·PAYLOAD·🇪🇺 EU

打ち上げ Jul 5, 2002 から Guiana Space Centre

Loading…

TLE

最新Source: Space-Track

元期: Sep 14, 2026, 14:08 UTC

1 27460U 02035A   26257.58940108  .00000017  00000-0  00000+0 0  9993
2 27460   6.3073  71.4559 0010002  50.4438 155.8843  0.98353089 88250

AllMySatでEUTE 5 WEST Aをリアルタイム追跡

Download on the App Store